Temp
-6 -5 -5 -6 -6 -5 -5 -5 -5 -6 -8 -8 -8 -6 -5 -6 -6 -5 -5 -5 -4 -4 -4 -5 -5 -6 -6 -6 -5 -5 -5 -5 -5 -5 -6 -6 -6 -6 -6 -6 -6 -6 -6 -7
-6 -6 -6 -6 -6 -6 -6 -5 -5 -5 -7 -9 -9 -8 -6 -6 -6 -5 -4 -6 -4 -4 -5 -5 -6 -6 -6 -6 -5 -5 -5 -5 -5 -5 -5 -6 -6 -6 -6 -6 -6 -6 -6 -6
-6 -6 -7 -6 -6 -6 -6 -6 -6 -5 -7 -8 -8 -8 -8 -6 -6 -5 -6 -5 -4 -4 -4 -4 -4 -5 -6 -6 -6 -5 -5 -5 -5 -5 -5 -5 -6 -6 -6 -5 -5 -5 -6 -5
-6 -7 -7 -6 -6 -6 -6 -6 -7 -6 -6 -7 -9 -7 -8 -7 -7 -6 -5 -6 -5 -3 -4 -4 -4 -5 -6 -5 -5 -5 -5 -5 -5 -5 -5 -5 -5 -6 -5 -6 -5 -5 -5 -5
-7 -7 -7 -7 -6 -7 -6 -7 -7 -7 -7 -6 -7 -8 -8 -8 -7 -7 -6 -5 -5 -4 -4 -4 -5 -5 -6 -5 -5 -5 -5 -4 -5 -5 -5 -5 -5 -5 -5 -5 -5 -5 -5 -5
-7 -7 -7 -7 -7 -7 -7 -7 -7 -6 -6 -6 -6 -7 -7 -7 -7 -7 -5 -5 -5 -4 -4 -5 -5 -5 -5 -5 -5 -5 -5 -4 -4 -5 -5 -5 -5 -5 -5 -5 -5 -4 -4 -5
-9 -9 -8 -7 -7 -7 -7 -7 -7 -7 -6 -5 -6 -7 -6 -6 -7 -5 -6 -6 -5 -5 -5 -5 -5 -5 -5 -5 -5 -5 -5 -5 -4 -4 -4 -4 -5 -5 -5 -5 -5 -5 -4 -5
-9 -9 -10 -11 -9 -7 -7 -7 -7 -6 -6 -5 -7 -6 -6 -7 -7 -7 -7 -6 -6 -5 -5 -5 -6 -6 -6 -6 -5 -5 -5 -5 -5 -4 -4 -4 -4 -5 -4 -4 -5 -5 -5 -4
-10 -10 -10 -11 -11 -10 -9 -8 -8 -7 -6 -8 -8 -7 -7 -8 -8 -7 -7 -7 -7 -5 -6 -6 -7 -7 -6 -6 -6 -6 -5 -5 -4 -4 -4 -4 -4 -4 -5 -4 -4 -4 -5 -4
-11 -12 -12 -11 -9 -8 -9 -9 -11 -10 -7 -7 -7 -6 -7 -8 -8 -8 -8 -8 -7 -8 -6 -7 -6 -6 -7 -6 -6 -6 -5 -5 -5 -4 -4 -4 -4 -5 -5 -4 -4 -4 -4 -4
-13 -12 -13 -13 -12 -12 -12 -12 -13 -11 -8 -8 -8 -7 -7 -9 -8 -9 -8 -8 -8 -8 -7 -6 -8 -6 -6 -6 -6 -6 -6 -5 -4 -4 -4 -4 -4 -4 -5 -4 -4 -4 -5 -5
-13 -13 -13 -13 -13 -13 -12 -11 -12 -12 -10 -9 -9 -5 -8 -9 -9 -8 -9 -8 -8 -8 -9 -8 -6 -7 -8 -6 -5 -6 -6 -5 -4 -4 -4 -4 -4 -4 -4 -5 -5 -5 -4 -5
-14 -13 -13 -13 -14 -15 -14 -13 -13 -13 -12 -10 -10 -6 -8 -9 -9 -10 -8 -8 -9 -9 -9 -9 -9 -4 -6 -5 -4 -5 -7 -6 -5 -4 -4 -4 -4 -4 -4 -5 -5 -5 -5 -4
-15 -15 -14 -13 -13 -15 -15 -14 -14 -13 -12 -10 -11 -8 -8 -9 -10 -10 -11 -9 -9 -9 -10 -10 -10 -7 -5 -6 -5 -5 -7 -8 -6 -5 -4 -4 -4 -4 -4 -5 -5 -5 -5 -5
-16 -16 -16 -16 -14 -16 -15 -15 -15 -14 -13 -11 -10 -9 -9 -10 -10 -10 -10 -10 -10 -10 -10 -9 -8 -7 -5 -7 -6 -5 -7 -8 -7 -6 -5 -5 -5 -5 -4 -4 -5 -5 -5 -5
-16 -17 -17 -17 -17 -17 -17 -16 -15 -15 -13 -12 -10 -10 -11 -10 -10 -11 -11 -10 -10 -9 -9 -7 -7 -6 -5 -6 -6 -6 -6 -8 -8 -7 -6 -6 -5 -5 -5 -4 -5 -5 -5 -5
-18 -19 -20 -19 -19 -19 -18 -16 -16 -15 -14 -13 -12 -11 -12 -10 -9 -11 -10 -11 -11 -9 -9 -8 -6 -7 -6 -5 -6 -6 -7 -6 -8 -8 -7 -6 -6 -5 -5 -5 -5 -5 -5 -5
-20 -20 -20 -20 -21 -21 -18 -18 -17 -16 -15 -14 -13 -14 -13 -11 -11 -10 -11 -10 -11 -10 -9 -9 -8 -7 -6 -6 -4 -6 -8 -6 -6 -8 -8 -7 -6 -6 -5 -5 -5 -5 -5 -5
-20 -21 -21 -21 -21 -21 -20 -20 -19 -17 -17 -16 -14 -14 -14 -11 -12 -9 -11 -10 -11 -10 -9 -10 -9 -9 -7 -6 -5 -6 -7 -7 -6 -7 -8 -8 -7 -6 -6 -5 -5 -5 -5 -5
-20 -21 -21 -22 -22 -21 -20 -20 -21 -19 -18 -17 -16 -15 -14 -13 -12 -11 -10 -10 -10 -9 -9 -9 -9 -10 -9 -7 -7 -7 -6 -5 -7 -7 -7 -8 -8 -7 -6 -6 -6 -6 -5 -5
-20 -21 -21 -21 -21 -21 -21 -21 -21 -21 -19 -19 -17 -17 -15 -15 -13 -12 -10 -9 -10 -10 -10 -9 -9 -10 -10 -9 -7 -5 -7 -6 -8 -7 -7 -8 -8 -7 -7 -6 -6 -6 -6 -5
-20 -20 -21 -21 -21 -21 -21 -21 -21 -21 -20 -20 -19 -18 -17 -16 -15 -13 -12 -11 -11 -11 -10 -10 -10 -11 -10 -10 -8 -6 -5 -6 -7 -7 -7 -7 -7 -7 -7 -7 -6 -6 -6 -5
-20 -20 -20 -21 -21 -21 -21 -21 -21 -20 -20 -20 -20 -19 -17 -16 -15 -14 -12 -12 -12 -11 -11 -10 -10 -11 -10 -10 -8 -8 -7 -7 -7 -7 -7 -7 -7 -8 -7 -7 -7 -7 -6 -6
-20 -20 -20 -20 -21 -21 -21 -21 -21 -21 -20 -20 -21 -20 -18 -16 -16 -15 -13 -12 -11 -12 -12 -10 -10 -10 -11 -10 -10 -9 -8 -8 -7 -7 -7 -8 -8 -8 -8 -8 -8 -8 -7 -6
-20 -20 -20 -20 -20 -21 -20 -20 -21 -21 -21 -20 -20 -21 -19 -18 -18 -16 -14 -12 -11 -11 -13 -11 -10 -10 -10 -9 -9 -8 -7 -7 -7 -7 -7 -7 -8 -8 -8 -8 -8 -8 -8 -7
-19 -20 -20 -20 -20 -20 -20 -20 -21 -21 -21 -21 -20 -20 -19 -19 -19 -18 -15 -13 -12 -11 -11 -13 -12 -13 -11 -10 -10 -9 -7 -8 -8 -7 -7 -7 -8 -8 -8 -8 -8 -7 -8 -8
Height
5842 5846 5850 5854 5857 5860 5862 5864 5866 5870 5878 5881 5879 5880 5885 5886 5888 5888 5891 5892 5896 5899 5900 5903 5907 5912 5915 5917 5918 5922 5925 5928 5931 5933 5935 5937 5940 5941 5943 5943 5944 5944 5945 5945
5837 5842 5846 5848 5851 5854 5857 5861 5866 5870 5873 5879 5880 5881 5882 5885 5887 5884 5852 5889 5894 5898 5901 5902 5906 5911 5913 5916 5917 5921 5924 5928 5931 5934 5936 5938 5940 5942 5944 5945 5945 5946 5947 5947
5830 5838 5838 5841 5845 5849 5852 5856 5861 5866 5869 5870 5873 5878 5879 5880 5884 5881 5883 5880 5893 5896 5898 5900 5903 5909 5912 5914 5917 5920 5923 5927 5931 5935 5937 5939 5941 5943 5944 5947 5947 5948 5949 5950
5824 5828 5831 5835 5839 5843 5847 5851 5855 5860 5862 5865 5868 5870 5874 5877 5880 5880 5880 5880 5892 5894 5895 5900 5901 5906 5910 5911 5915 5919 5922 5926 5931 5934 5938 5940 5941 5943 5945 5947 5950 5951 5952 5953
5816 5820 5823 5828 5834 5836 5842 5844 5848 5851 5855 5857 5863 5864 5867 5869 5874 5881 5884 5882 5890 5894 5892 5897 5898 5903 5907 5908 5913 5917 5921 5925 5929 5933 5936 5939 5942 5944 5947 5947 5949 5951 5953 5954
5809 5812 5816 5819 5825 5830 5833 5837 5842 5844 5846 5849 5860 5860 5862 5867 5875 5880 5884 5884 5891 5893 5894 5892 5894 5899 5904 5905 5909 5915 5920 5924 5928 5932 5935 5938 5941 5944 5947 5948 5950 5951 5953 5955
5796 5804 5811 5815 5817 5822 5826 5830 5834 5837 5841 5848 5857 5856 5861 5866 5869 5877 5878 5883 5885 5887 5892 5887 5893 5897 5900 5903 5906 5910 5916 5921 5927 5931 5934 5937 5940 5943 5946 5947 5949 5951 5954 5956
5789 5798 5801 5807 5810 5816 5819 5823 5826 5832 5839 5846 5848 5848 5861 5862 5864 5868 5870 5875 5878 5883 5888 5881 5890 5895 5895 5899 5903 5906 5912 5917 5922 5928 5932 5935 5939 5942 5945 5947 5949 5951 5954 5956
5779 5786 5790 5793 5795 5802 5812 5814 5823 5823 5831 5829 5836 5845 5853 5859 5860 5863 5865 5866 5871 5880 5880 5882 5878 5892 5895 5895 5900 5904 5908 5913 5917 5922 5928 5933 5937 5940 5943 5946 5948 5950 5953 5955
5773 5781 5783 5785 5790 5798 5802 5814 5811 5812 5819 5822 5830 5839 5847 5855 5857 5858 5860 5861 5862 5865 5870 5874 5877 5878 5884 5891 5896 5900 5904 5909 5913 5917 5923 5928 5934 5937 5940 5944 5946 5949 5952 5954
5766 5769 5779 5781 5783 5785 5788 5794 5798 5803 5809 5811 5820 5831 5848 5850 5853 5856 5856 5859 5859 5859 5856 5864 5876 5882 5884 5884 5887 5895 5901 5905 5910 5915 5920 5924 5930 5935 5938 5942 5944 5946 5949 5952
5756 5761 5766 5772 5775 5776 5778 5781 5788 5793 5802 5805 5809 5823 5844 5846 5847 5840 5839 5848 5857 5857 5855 5853 5856 5871 5879 5884 5887 5887 5894 5900 5905 5910 5914 5919 5924 5930 5935 5939 5941 5944 5946 5949
5743 5746 5749 5761 5766 5769 5768 5773 5775 5779 5786 5793 5797 5813 5835 5833 5836 5835 5834 5836 5842 5851 5850 5851 5853 5864 5857 5875 5882 5880 5887 5894 5900 5904 5909 5913 5920 5925 5930 5934 5937 5941 5944 5947
5735 5735 5737 5744 5750 5750 5753 5757 5764 5771 5776 5784 5787 5800 5828 5819 5825 5831 5829 5828 5835 5842 5849 5852 5851 5857 5866 5872 5874 5875 5878 5889 5894 5899 5903 5907 5913 5919 5924 5928 5932 5936 5939 5942
5723 5725 5724 5728 5731 5733 5739 5744 5750 5753 5762 5770 5783 5789 5806 5803 5809 5819 5825 5823 5824 5832 5830 5839 5842 5845 5857 5864 5871 5870 5869 5883 5891 5895 5898 5900 5904 5910 5916 5922 5926 5930 5934 5938
5709 5710 5707 5710 5716 5714 5718 5727 5735 5741 5753 5757 5766 5778 5784 5785 5791 5799 5810 5816 5816 5820 5821 5828 5825 5834 5848 5858 5862 5865 5868 5874 5884 5891 5892 5894 5899 5905 5911 5916 5921 5925 5929 5932
5698 5695 5693 5694 5696 5696 5700 5715 5722 5730 5740 5749 5751 5764 5769 5771 5775 5784 5791 5800 5806 5811 5816 5815 5820 5829 5838 5846 5850 5852 5859 5867 5874 5884 5888 5890 5893 5898 5904 5909 5914 5920 5924 5927
5689 5684 5683 5682 5681 5681 5698 5699 5705 5714 5721 5723 5729 5737 5746 5759 5760 5772 5780 5787 5793 5801 5807 5810 5819 5822 5831 5832 5840 5844 5848 5861 5865 5872 5883 5886 5888 5892 5897 5903 5908 5913 5918 5922
5679 5675 5672 5669 5672 5677 5685 5688 5689 5694 5703 5702 5709 5723 5737 5752 5748 5759 5765 5773 5781 5788 5798 5803 5813 5817 5820 5824 5823 5807 5835 5852 5858 5869 5872 5879 5884 5886 5891 5896 5901 5905 5910 5915
5672 5670 5667 5665 5665 5670 5674 5674 5675 5681 5687 5693 5703 5711 5729 5733 5736 5741 5751 5758 5768 5778 5786 5793 5802 5807 5810 5815 5823 5829 5835 5843 5855 5865 5866 5870 5876 5881 5885 5890 5893 5897 5903 5907
5667 5665 5663 5661 5660 5662 5663 5666 5667 5669 5677 5680 5689 5695 5706 5715 5724 5731 5745 5757 5767 5772 5779 5784 5790 5795 5801 5807 5811 5824 5820 5839 5852 5858 5857 5860 5868 5875 5879 5883 5886 5891 5895 5899
5663 5661 5658 5656 5654 5653 5655 5657 5659 5663 5668 5669 5675 5681 5688 5700 5710 5720 5730 5744 5753 5763 5764 5775 5778 5783 5792 5799 5801 5814 5822 5823 5837 5844 5850 5854 5862 5867 5872 5876 5879 5883 5888 5892
5659 5656 5653 5652 5650 5646 5648 5648 5652 5656 5658 5660 5664 5668 5673 5683 5690 5705 5715 5727 5738 5745 5752 5763 5766 5773 5781 5789 5797 5805 5804 5800 5826 5834 5841 5849 5855 5860 5865 5869 5872 5876 5880 5885
5654 5651 5648 5646 5641 5640 5638 5640 5642 5641 5643 5647 5651 5656 5660 5665 5673 5688 5698 5709 5718 5729 5736 5748 5756 5762 5769 5777 5786 5796 5802 5808 5817 5825 5832 5840 5848 5854 5859 5863 5866 5869 5872 5877
5650 5646 5643 5639 5636 5632 5632 5630 5630 5631 5631 5634 5638 5644 5646 5649 5660 5670 5684 5696 5703 5712 5724 5734 5744 5752 5759 5765 5771 5782 5790 5798 5805 5813 5822 5831 5838 5845 5851 5855 5859 5863 5866 5869
5649 5645 5639 5634 5630 5627 5624 5621 5619 5618 5617 5620 5627 5633 5637 5640 5649 5660 5670 5680 5690 5697 5709 5722 5731 5737 5745 5753 5761 5768 5779 5786 5794 5803 5811 5820 5827 5833 5838 5844 5850 5855 5858 5861
Wind_Speed
24 24 23 23 20 23 25 30 28 23 6 6 18 22 17 19 18 16 18 9 8 8 8 8 8 9 10 7 8 11 13 16 12 11 10 11 9 9 7 6 8 10 11 6
30 24 22 24 27 25 27 27 28 24 13 10 22 26 23 22 24 22 23 9 14 9 7 7 8 7 10 12 10 12 14 18 15 11 11 12 12 8 7 8 11 10 10 13
35 30 30 29 27 30 29 28 25 28 23 22 21 30 30 28 25 27 28 25 19 14 10 8 6 8 10 13 11 14 15 20 17 14 12 13 11 7 7 8 11 13 10 10
35 35 36 34 32 31 32 30 27 27 33 32 25 27 29 25 24 21 12 16 18 17 11 9 8 5 11 14 14 15 16 19 19 15 14 13 13 11 7 6 9 12 12 11
33 36 39 39 38 36 33 34 35 35 35 39 36 33 29 24 24 23 22 25 22 17 16 12 10 9 11 13 17 16 18 19 22 17 15 15 15 13 10 8 8 12 14 13
37 38 40 40 41 42 41 38 37 39 40 41 35 39 36 31 20 17 16 18 18 19 19 16 13 12 9 11 15 17 16 18 22 20 16 16 16 16 13 11 10 12 13 12
38 36 37 41 44 43 43 45 42 43 41 36 32 39 35 32 27 20 15 24 28 25 28 20 13 11 11 7 11 19 18 18 21 23 18 17 17 16 15 13 11 10 13 13
39 38 35 33 38 43 46 44 46 46 40 36 35 38 28 31 32 28 25 23 25 30 31 27 17 15 15 13 10 14 21 20 21 22 23 20 18 19 17 15 13 12 11 11
41 40 40 39 43 45 39 43 43 44 45 46 41 35 26 10 14 28 32 36 30 32 33 32 29 19 18 17 14 12 18 23 23 25 25 23 21 19 20 20 18 16 14 13
38 34 35 42 47 49 49 40 40 44 48 49 46 42 29 8 14 15 26 33 33 35 36 40 32 34 27 20 19 16 16 20 25 26 26 25 24 23 23 22 22 21 18 16
35 38 36 36 38 38 35 40 42 45 50 50 46 47 29 7 9 18 29 26 27 30 35 31 46 35 27 28 26 18 17 18 23 25 25 26 24 23 23 21 23 24 22 19
31 33 35 39 42 43 47 49 47 50 49 52 48 53 29 19 9 26 31 26 26 25 28 39 32 30 28 33 28 20 16 19 22 27 29 29 28 26 25 23 22 22 23 22
40 41 42 40 42 45 49 51 48 49 55 56 52 54 39 31 24 20 20 26 28 27 29 30 37 34 31 32 30 24 14 15 20 24 30 30 29 27 26 25 24 22 21 21
31 34 42 47 46 50 56 54 53 49 54 59 57 58 43 43 33 25 15 33 35 26 27 27 33 20 26 32 29 25 17 14 15 20 27 32 31 30 29 28 27 25 22 21
33 36 40 38 48 48 54 62 59 58 57 59 59 63 47 50 44 37 28 29 34 32 29 31 34 31 36 34 36 25 25 17 13 14 19 28 34 34 34 30 28 28 25 23
38 41 46 48 44 43 58 58 62 64 61 63 63 63 51 59 58 46 40 36 39 31 41 27 36 36 38 35 51 29 25 22 16 15 17 21 29 34 33 33 31 29 28 26
41 32 38 40 40 43 48 59 60 62 64 62 62 62 56 63 67 57 52 50 48 38 40 38 41 30 26 29 26 39 33 27 23 18 13 16 21 29 34 34 32 29 28 29
29 29 31 36 37 39 30 54 61 63 65 69 69 64 71 70 64 64 57 58 59 56 45 49 44 42 38 41 37 46 39 44 32 25 16 14 16 21 30 34 30 29 29 29
26 23 27 31 33 32 23 29 55 68 66 71 71 68 60 74 71 74 61 63 65 66 58 51 53 48 44 44 42 37 25 52 30 25 20 12 11 15 23 27 27 29 29 29
20 17 19 21 24 24 23 30 39 53 69 68 70 70 66 72 83 81 73 64 69 66 66 65 57 57 59 56 51 46 46 36 22 25 21 18 16 15 18 25 27 28 28 30
17 14 16 21 25 27 32 27 35 43 51 64 68 69 68 73 77 81 81 69 61 64 58 59 59 58 62 62 53 36 29 31 35 28 24 20 18 17 17 24 26 26 27 29
17 15 15 16 22 28 28 30 34 40 52 46 58 65 69 69 73 76 81 72 62 63 61 61 56 65 63 63 53 51 41 45 36 32 29 25 22 20 20 21 24 24 25 25
16 17 19 21 21 27 25 31 31 34 47 48 55 54 70 73 73 73 79 82 70 58 62 66 48 65 61 66 65 65 56 30 36 36 35 31 28 26 24 25 25 25 25 25
16 16 17 21 27 32 30 36 36 34 43 51 49 55 69 72 74 75 76 79 84 71 55 68 68 62 55 57 58 62 60 52 47 42 39 38 34 30 27 26 25 24 25 25
19 16 16 17 18 28 31 33 33 36 38 47 49 49 60 72 66 68 74 75 81 88 71 64 66 55 59 61 59 61 58 52 50 47 46 45 40 37 34 32 29 27 26 25
22 23 19 14 13 16 19 24 26 28 34 44 48 56 50 57 56 64 69 73 75 83 86 73 63 52 49 60 62 57 56 53 52 50 50 49 45 44 41 39 35 31 29 28
Wind_Direction
226 227 226 223 224 217 223 221 213 194 196 255 272 257 248 267 278 259 207 217 203 211 195 187 174 190 189 187 178 196 192 186 174 174 175 165 162 164 171 147 126 127 121 125
227 224 222 221 220 217 218 228 229 216 166 237 264 272 268 274 248 252 223 219 215 212 195 200 172 197 205 187 187 192 192 191 184 178 172 166 169 178 170 146 126 132 123 120
229 224 222 219 218 222 222 222 227 222 188 207 234 255 266 263 244 252 265 212 209 190 188 174 160 180 207 191 191 190 196 195 191 184 186 182 177 188 180 150 134 133 133 129
227 229 227 224 219 221 221 222 215 225 213 196 210 236 259 268 262 280 248 196 207 195 178 181 148 177 196 197 196 193 202 195 197 191 190 192 185 179 181 165 150 142 148 139
226 226 232 226 227 223 224 221 219 217 220 229 216 227 229 243 253 279 260 217 216 210 182 188 182 200 206 200 198 200 204 196 198 197 193 191 187 174 173 183 173 159 154 142
234 231 227 229 228 228 225 225 226 226 226 228 224 230 238 244 254 258 266 252 212 203 204 187 199 201 195 205 200 203 206 203 201 201 197 198 189 177 176 186 179 165 158 147
231 232 237 234 233 230 231 229 229 232 233 242 233 233 245 248 247 257 253 219 218 209 208 188 200 181 178 193 203 203 204 204 205 207 207 206 198 191 182 187 187 174 168 164
237 230 229 232 239 242 233 234 234 235 236 241 237 241 243 258 252 254 254 254 245 211 216 188 190 197 178 185 192 204 203 205 201 206 211 209 207 199 191 189 192 195 184 176
231 229 228 220 225 229 231 236 237 237 234 239 236 235 228 233 270 262 257 260 268 242 219 209 189 210 190 176 181 192 205 208 204 202 209 210 205 210 203 194 196 200 199 196
232 225 229 229 232 233 229 232 233 236 234 239 239 235 227 211 287 298 274 272 266 269 265 215 204 198 200 195 197 199 210 205 210 208 203 211 209 206 213 203 202 207 204 208
247 240 222 226 236 224 218 222 218 230 233 234 237 233 217 128 201 260 268 280 284 287 280 234 258 215 207 198 191 201 211 216 212 215 210 210 215 212 215 216 212 212 211 213
253 247 242 235 234 235 234 228 220 223 227 235 236 228 188 180 200 230 241 238 274 282 289 288 242 203 243 222 201 185 200 216 217 215 216 210 214 212 212 215 220 221 219 216
263 254 245 229 229 236 240 238 227 216 221 226 230 230 183 196 212 238 237 219 240 266 266 278 285 247 220 207 208 186 190 211 217 216 216 218 213 218 214 216 219 223 228 232
271 270 258 242 229 229 229 235 236 232 226 226 224 229 194 207 206 198 236 224 222 226 247 261 270 265 221 228 209 187 183 221 211 217 220 218 216 216 219 219 219 220 224 229
279 275 271 263 244 234 230 229 231 228 227 227 223 229 205 209 208 201 197 213 222 215 223 229 240 234 208 218 221 202 181 209 222 217 219 224 219 216 217 219 219 221 224 228
284 286 271 260 257 250 229 227 226 231 231 228 227 224 202 209 205 198 199 202 214 220 219 204 231 230 216 225 217 203 201 195 217 225 217 219 223 223 221 220 223 223 227 228
288 282 261 254 251 250 234 226 227 227 231 231 230 221 208 208 209 203 201 202 204 210 208 216 225 231 233 209 222 197 195 209 200 214 230 217 219 221 222 223 225 227 227 231
296 275 268 252 249 247 242 222 220 224 227 228 225 217 212 207 215 202 204 205 208 207 215 220 233 240 245 236 234 233 221 227 203 195 216 230 217 220 220 221 223 227 230 230
307 289 265 254 251 241 237 223 225 219 217 226 227 221 213 211 216 205 206 208 213 213 212 216 220 232 242 248 242 214 234 224 204 202 188 214 227 220 215 217 219 221 227 232
308 309 278 258 248 236 234 229 233 223 224 226 229 230 217 214 219 218 208 207 213 219 221 225 224 233 236 239 236 247 250 244 234 209 193 204 219 223 215 215 220 223 225 228
306 301 301 257 249 243 245 247 227 224 218 227 226 229 226 219 219 224 216 211 210 215 221 221 221 226 231 235 229 215 213 231 219 215 210 207 218 222 225 222 222 226 228 230
306 290 280 277 259 254 245 249 234 232 226 225 223 228 228 225 222 222 225 214 220 216 216 216 220 219 224 224 230 225 230 199 208 216 217 215 220 232 241 232 225 226 229 228
325 301 271 263 262 260 255 252 247 242 233 230 226 223 228 226 225 221 222 223 214 214 221 219 222 221 225 223 221 224 230 233 225 211 221 226 223 231 241 239 226 224 228 228
323 308 298 273 263 255 250 248 252 249 239 238 240 228 226 228 228 223 221 223 223 215 217 219 221 223 225 225 226 225 229 230 231 220 220 225 233 230 229 231 229 230 232 227
354 326 310 296 276 263 260 263 262 255 249 237 236 235 231 229 227 228 223 219 226 226 222 222 217 222 229 234 231 227 223 223 225 225 223 221 223 229 231 229 226 230 236 236
0 7 358 331 311 271 266 269 270 264 256 239 233 231 229 232 228 223 226 220 219 228 229 225 224 233 230 229 224 224 220 220 221 225 225 224 222 222 225 228 231 227 230 238